Location: Carrières
(48.9495°N, 2.0407°E)
Time: 19:51:33
(UTC+00:00)

Altair - Pass Details

Date: 30 April 2024
Orbit: 1502 x 1682 km, 47.2° (Epoch: 21 May)

Event Time Altitude Azimuth Distance (km) Brightness Sun altitude
Rises 23:35:00 0° 288° (WNW) 4,861 10.4 -25.8°
Reaches altitude 10° 23:39:24 10° 272° (W) 3,839 9.6 -25.9°
Enters shadow 23:45:14 19° 234° (SW) 3,159 8.8 -25.9°
